• In Russia
  • List of Countries
  • For 7 days
  • Water Temperature
  • Satellite Maps
  • Weather Map
  • Weather Widgets
  • user-avatar
    Login

    Hourly Weather Sumgayit

    Today, 27 March, Monday

    Time Temperature Precipitation Wind Pressure Humidity
    00:00 +7°C° 0 mm 5 mps 738 mmHg 81%
    01:00 +7°C° 0 mm 5 mps 738 mmHg 78%
    02:00 +7°C° 0 mm 5 mps 737 mmHg 75%
    03:00 +7°C° 0 mm 5 mps 737 mmHg 76%
    04:00 +7°C° 0 mm 5 mps 737 mmHg 75%
    05:00 +7°C° 0 mm 4 mps 737 mmHg 74%
    06:00 +7°C° 0 mm 4 mps 737 mmHg 73%
    07:00 +9°C° 0 mm 5 mps 737 mmHg 64%
    08:00 +11°C° 0 mm 6 mps 737 mmHg 54%
    09:00 +15°C° 0 mm 7 mps 737 mmHg 45%
    10:00 +16°C° 0 mm 8 mps 737 mmHg 40%
    11:00 +18°C° 0 mm 9 mps 737 mmHg 36%
    12:00 +19°C° 0 mm 10 mps 736 mmHg 32%
    13:00 +21°C° 0 mm 10 mps 736 mmHg 32%
    14:00 +21°C° 0 mm 9 mps 735 mmHg 31%
    15:00 +19°C° 0 mm 9 mps 735 mmHg 31%
    16:00 +17°C° 0 mm 7 mps 736 mmHg 41%
    17:00 +14°C° 0 mm 6 mps 736 mmHg 50%
    18:00 +11°C° 0 mm 4 mps 736 mmHg 60%
    19:00 +10°C° 0 mm 4 mps 736 mmHg 65%
    20:00 +8°C° 0 mm 4 mps 736 mmHg 70%
    21:00 +7°C° 0 mm 5 mps 736 mmHg 74%
    22:00 +7°C° 0 mm 4 mps 736 mmHg 75%
    23:00 +8°C° 0 mm 3 mps 736 mmHg 76%

    Tomorrow, 28 March, Tuesday

    Time Temperature Precipitation Wind Pressure Humidity
    00:00 +7°C° 0 mm 3 mps 736 mmHg 77%
    01:00 +7°C° 0 mm 3 mps 736 mmHg 78%
    02:00 +7°C° 0 mm 3 mps 736 mmHg 79%
    03:00 +7°C° 0 mm 3 mps 735 mmHg 80%
    04:00 +5°C° 0 mm 4 mps 736 mmHg 82%
    05:00 +5°C° 0 mm 5 mps 737 mmHg 84%
    06:00 +4°C° 0 mm 6 mps 737 mmHg 86%
    07:00 +5°C° 0 mm 7 mps 738 mmHg 80%
    08:00 +6°C° 0 mm 7 mps 739 mmHg 74%
    09:00 +7°C° 0 mm 8 mps 740 mmHg 68%
    10:00 +9°C° 0 mm 8 mps 740 mmHg 65%
    11:00 +9°C° 0 mm 8 mps 741 mmHg 63%
    12:00 +10°C° 0 mm 7 mps 741 mmHg 60%
    13:00 +9°C° 0 mm 7 mps 741 mmHg 60%
    14:00 +9°C° 0 mm 6 mps 741 mmHg 60%
    15:00 +9°C° 0 mm 6 mps 741 mmHg 60%
    16:00 +8°C° 0 mm 5 mps 741 mmHg 61%
    17:00 +8°C° 0 mm 4 mps 741 mmHg 62%
    18:00 +8°C° 0 mm 3 mps 741 mmHg 63%
    19:00 +7°C° 0 mm 4 mps 741 mmHg 67%
    20:00 +6°C° 0 mm 4 mps 741 mmHg 71%
    21:00 +6°C° 0 mm 5 mps 741 mmHg 75%
    22:00 +4°C° 0 mm 6 mps 741 mmHg 77%
    23:00 +4°C° 0 mm 7 mps 740 mmHg 78%

    Day after tomorrow, 29 March, Wednesday

    Time Temperature Precipitation Wind Pressure Humidity
    00:00 +4°C° 0 mm 7 mps 740 mmHg 79%
    01:00 +4°C° 0 mm 8 mps 739 mmHg 77%
    02:00 +4°C° 0 mm 8 mps 739 mmHg 75%
    03:00 +4°C° 0 mm 8 mps 738 mmHg 73%
    04:00 +4°C° 0 mm 7 mps 738 mmHg 66%
    05:00 +4°C° 0 mm 7 mps 738 mmHg 59%
    06:00 +4°C° 0 mm 7 mps 738 mmHg 53%
    07:00 +7°C° 0 mm 6 mps 739 mmHg 46%
    08:00 +9°C° 0 mm 6 mps 740 mmHg 39%
    09:00 +13°C° 0 mm 6 mps 740 mmHg 32%
    10:00 +13°C° 0 mm 6 mps 741 mmHg 34%
    11:00 +14°C° 0 mm 6 mps 741 mmHg 35%
    12:00 +15°C° 0 mm 5 mps 741 mmHg 36%
    13:00 +14°C° 0 mm 6 mps 742 mmHg 37%
    14:00 +14°C° 0 mm 6 mps 742 mmHg 39%
    15:00 +14°C° 0 mm 6 mps 742 mmHg 41%
    16:00 +11°C° 0 mm 6 mps 743 mmHg 50%
    17:00 +9°C° 0 mm 6 mps 743 mmHg 60%
    18:00 +7°C° 0 mm 6 mps 744 mmHg 70%
    19:00 +7°C° 0 mm 5 mps 745 mmHg 72%
    20:00 +6°C° 0 mm 4 mps 745 mmHg 75%
    21:00 +7°C° 0 mm 3 mps 746 mmHg 77%
    22:00 +5°C° 0 mm 3 mps 747 mmHg 77%
    23:00 +6°C° 0 mm 2 mps 747 mmHg 78%

    30 March, Thursday

    Time Temperature Precipitation Wind Pressure Humidity
    00:00 +7°C° 0 mm 1 mps 747 mmHg 79%
    01:00 +7°C° 0 mm 1 mps 747 mmHg 79%
    02:00 +6°C° 0 mm 1 mps 747 mmHg 78%
    03:00 +6°C° 0 mm 1 mps 747 mmHg 78%
    04:00 +6°C° 0 mm 1 mps 747 mmHg 77%
    05:00 +5°C° 0 mm 2 mps 748 mmHg 76%
    06:00 +5°C° 0 mm 2 mps 748 mmHg 76%
    07:00 +7°C° 0 mm 3 mps 748 mmHg 70%
    08:00 +9°C° 0 mm 3 mps 748 mmHg 64%
    09:00 +10°C° 0 mm 4 mps 748 mmHg 58%
    10:00 +10°C° 0 mm 5 mps 747 mmHg 57%
    11:00 +11°C° 0 mm 6 mps 747 mmHg 56%
    12:00 +11°C° 0 mm 6 mps 746 mmHg 54%
    13:00 +11°C° 0 mm 7 mps 745 mmHg 54%
    14:00 +12°C° 0 mm 7 mps 744 mmHg 54%
    15:00 +12°C° 0 mm 7 mps 743 mmHg 54%
    16:00 +11°C° 0 mm 7 mps 743 mmHg 58%
    17:00 +10°C° 0 mm 7 mps 742 mmHg 61%
    18:00 +9°C° 0 mm 6 mps 742 mmHg 64%
    19:00 +9°C° 0 mm 6 mps 742 mmHg 66%
    20:00 +8°C° 0 mm 6 mps 742 mmHg 68%
    21:00 +8°C° 0 mm 6 mps 742 mmHg 70%
    22:00 +7°C° 0 mm 6 mps 741 mmHg 72%
    23:00 +7°C° 0 mm 5 mps 741 mmHg 73%

    31 March, Friday

    Time Temperature Precipitation Wind Pressure Humidity
    00:00 +7°C° 0 mm 5 mps 740 mmHg 74%
    01:00 +7°C° 0 mm 5 mps 740 mmHg 73%
    02:00 +7°C° 0 mm 4 mps 739 mmHg 72%
    03:00 +7°C° 0 mm 4 mps 739 mmHg 71%
    04:00 +7°C° 0 mm 4 mps 739 mmHg 68%
    05:00 +8°C° 0 mm 3 mps 740 mmHg 65%
    06:00 +8°C° 0 mm 3 mps 740 mmHg 62%
    07:00 +10°C° 0 mm 4 mps 740 mmHg 56%
    08:00 +10°C° 0 mm 5 mps 741 mmHg 51%
    09:00 +13°C° 0 mm 5 mps 741 mmHg 46%
    10:00 +14°C° 0 mm 6 mps 742 mmHg 45%
    11:00 +15°C° 0 mm 6 mps 742 mmHg 44%
    12:00 +15°C° 0 mm 7 mps 742 mmHg 43%
    13:00 +15°C° 0 mm 8 mps 743 mmHg 46%
    14:00 +15°C° 0 mm 9 mps 743 mmHg 49%
    15:00 +13°C° 0 mm 10 mps 743 mmHg 52%
    16:00 +12°C° 0 mm 10 mps 744 mmHg 59%
    17:00 +9°C° 0 mm 11 mps 744 mmHg 67%
    18:00 +7°C° 0 mm 12 mps 745 mmHg 74%
    19:00 +7°C° 0 mm 12 mps 746 mmHg 74%
    20:00 +5°C° 0 mm 12 mps 747 mmHg 74%
    21:00 +4°C° 0 mm 12 mps 748 mmHg 74%
    22:00 +4°C° 0.1 mm 12 mps 748 mmHg 73%
    23:00 +3°C° 0.1 mm 11 mps 748 mmHg 72%

    1 April, Saturday

    Time Temperature Precipitation Wind Pressure Humidity
    00:00 +3°C° 0.1 mm 11 mps 748 mmHg 70%
    01:00 +2°C° 0.3 mm 10 mps 749 mmHg 70%
    02:00 +2°C° 0.3 mm 9 mps 749 mmHg 70%
    03:00 +2°C° 0.3 mm 9 mps 749 mmHg 69%
    04:00 +2°C° 0.2 mm 8 mps 749 mmHg 69%
    05:00 +2°C° 0.2 mm 7 mps 749 mmHg 68%
    06:00 +2°C° 0.2 mm 7 mps 750 mmHg 67%
    07:00 +3°C° 0 mm 6 mps 750 mmHg 66%
    08:00 +3°C° 0 mm 6 mps 750 mmHg 65%
    09:00 +3°C° 0 mm 6 mps 750 mmHg 63%
    10:00 +4°C° 0 mm 6 mps 749 mmHg 61%
    11:00 +5°C° 0 mm 5 mps 749 mmHg 60%
    12:00 +6°C° 0 mm 5 mps 749 mmHg 58%
    13:00 +6°C° 0.2 mm 4 mps 748 mmHg 59%
    14:00 +6°C° 0.2 mm 4 mps 748 mmHg 59%
    15:00 +5°C° 0.2 mm 4 mps 747 mmHg 59%
    16:00 +5°C° 0.1 mm 3 mps 747 mmHg 62%
    17:00 +5°C° 0.1 mm 3 mps 747 mmHg 64%
    18:00 +4°C° 0.1 mm 3 mps 747 mmHg 67%
    19:00 +4°C° 0 mm 3 mps 747 mmHg 69%
    20:00 +5°C° 0 mm 2 mps 747 mmHg 71%
    21:00 +5°C° 0 mm 2 mps 747 mmHg 74%
    22:00 +5°C° 0 mm 2 mps 746 mmHg 75%
    23:00 +4°C° 0 mm 2 mps 745 mmHg 77%
    Show more